Location: Laura�t
(43.9341°N, 0.2497°E)
Time: 09:01:12
(UTC+00:00)

Cosmos 44 Rocket - Pass Details

Date: 03 March 2021
Orbit: 636 x 754 km, 65.1° (Epoch: 19 April)

Event Time Altitude Azimuth Distance (km) Brightness Sun altitude
Rises 18:20:01 0° 328° (NNW) 3,209 7.2 -6.2°
Reaches altitude 10° 18:22:27 10° 331° (NNW) 2,285 6.3 -6.6°
Maximum altitude 18:27:39 61° 52° (NE) 851 3.5 -7.5°
Drops below altitude 10° 18:32:47 10° 133° (SE) 2,256 5.5 -8.5°
Sets 18:35:11 0° 137° (SE) 3,164 6.3 -8.9°
